[[{"header":{"parameterUnit":"m.s-1","parameterCategory":1,"la1":30.2991,"la2":30.254,"lo1":-89.0895,"lo2":-89.0444,"dy":0.0017,"dx":0.0017,"nx":28,"ny":28,"refTime":"2023-10-27T09:00:00:Z","depth":0,"parameterNumber":2,"parameterNumberName":"U-component_of_WINDS"},"data":[0,0,0,0,0,0,0,0,0,0,0,0,0,0,0,0,0,0,0,0,0,0,0,0,0,0,0,0,0,0,0,0,0,0,0,0,0,0,0,0,0,0,0,0,0,0,0,0,0,0,0,0,0,0,0,0,0,0,-3.2027,-3.2027,0,-3.2009,-3.2008,-3.2008,-3.1889,-3.1886,-3.1883,-3.188,-3.1863,-3.1865,-3.1867,0,0,0,0,0,0,0,0,0,0,0,0,0,-3.1961,-3.1963,-3.2027,-3.2027,-3.2027,-3.2009,-3.2008,-3.2008,-3.1889,-3.1886,-3.1882,-3.1879,-3.1862,-3.1865,-3.1868,0,0,0,0,0,0,0,0,0,0,0,0,0,-3.1971,-3.1963,-3.2027,-3.1965,-3.1959,-3.2009,-3.2008,-3.2008,-3.189,-3.1886,-3.1881,-3.1877,-3.1861,-3.1865,-3.1868,-3.1976,0,0,-3.1878,-3.188,0,0,0,0,0,0,0,0,-3.1971,-3.1974,-3.1974,-3.197,-3.1963,-3.1946,-3.1979,-3.1997,-3.1891,-3.1916,-3.188,-3.1875,-3.1894,-3.1895,-3.1901,-3.1975,-3.1974,-3.1878,-3.1881,-3.1882,-3.1883,0,0,0,0,0,0,0,-3.197,-3.1974,-3.202,-3.1975,-3.1968,-3.1939,-3.1935,-3.1982,-3.193,-3.1914,-3.1905,-3.1905,-3.189,-3.1898,-3.19,-3.1974,-3.1878,-3.1881,-3.1883,-3.1885,-3.2136,-3.214,0,0,0,0,0,0,-3.1978,-3.1974,-3.202,-3.2019,-3.1956,-3.1944,-3.194,-3.1956,-3.1929,-3.1921,-3.1908,-3.1899,-3.1894,-3.1896,-3.1899,-3.2023,-3.1882,-3.1885,-3.1887,-3.2131,-3.2137,-3.2142,0,0,0,0,0,0,-3.1977,-3.1983,-3.2021,-3.1994,-3.1997,-3.1949,-3.1969,-3.1958,-3.1965,-3.1925,-3.1915,-3.1925,-3.1891,-3.1894,-3.1957,-3.202,-3.1887,-3.189,-3.2126,-3.2133,-3.214,-3.2273,0,0,0,0,0,0,-3.1976,-3.1984,-3.2024,-3.1996,-3.1999,-3.208,-3.1973,-3.1961,-3.1971,-3.1959,-3.1938,-3.1931,-3.1888,-3.1953,-3.1961,-3.2023,-3.1892,-3.212,-3.2129,-3.2137,-3.2262,-3.2283,-3.2301,0,0,0,0,0,-3.1974,-3.2062,-3.2026,-3.2033,-3.2048,-3.2084,-3.2086,-3.2034,-3.1977,-3.2017,-3.1991,-3.1931,-3.2013,-3.1961,-3.1968,-3.2032,-3.2116,-3.2127,-3.2137,-3.2254,-3.2279,-3.2301,0,0,0,0,0,0,-3.2099,-3.2057,-3.2017,-3.2099,-3.2096,-3.2064,-3.2113,-3.2063,-3.2076,-3.2064,-3.1999,-3.1996,-3.2069,-3.2057,-3.2,-3.2135,-3.2054,-3.2067,-3.214,-3.2164,-3.2183,-3.2184,-3.1895,0,0,0,0,0,-3.2136,-3.2168,-3.2131,-3.2207,-3.2207,-3.2161,-3.2175,-3.2135,-3.2129,-3.2127,-3.2106,-3.2103,-3.2128,-3.2146,-3.2166,-3.2261,-3.2254,-3.2308,-3.2328,-3.2344,-3.2355,-3.2404,-3.2427,-3.2176,-3.2176,-3.2176,0,0,-3.2213,-3.2195,-3.2219,-3.2232,-3.2224,-3.226,-3.216,-3.2202,-3.2228,-3.2134,-3.2192,-3.2177,-3.217,-3.2249,-3.2283,-3.2241,-3.2423,-3.2357,-3.237,-3.2373,-3.2417,-3.2441,-3.2462,-3.2184,-3.2182,-3.2181,0,0,-3.2371,-3.2361,-3.2423,-3.2418,-3.2408,-3.2377,-3.2392,-3.2367,-3.2353,-3.2411,-3.2341,-3.2371,-3.2416,-3.2413,-3.2418,-3.2576,-3.2522,-3.2585,-3.2686,-3.2734,-3.2754,-3.2771,-3.2827,-3.2848,-3.2596,-3.2597,-3.2597,0,-3.2468,-3.2518,-3.2461,-3.2507,-3.2515,-3.2432,-3.2494,-3.2492,-3.2491,-3.2498,-3.2451,-3.2505,-3.2494,-3.2572,-3.261,-3.2617,-3.2633,-3.2586,-3.2756,-3.2772,-3.2788,-3.284,-3.2861,-3.2604,-3.2604,-3.2603,-3.2602,0,-3.2638,-3.2674,-3.2725,-3.2725,-3.2738,-3.2793,-3.2745,-3.2765,-3.2725,-3.2699,-3.2759,-3.2744,-3.2759,-3.2775,-3.2737,-3.2848,-3.2822,-3.2767,-3.2683,-3.282,-3.2868,-3.2888,-3.2616,-3.2613,-3.261,-3.2609,0,0,-3.2873,-3.2841,-3.2861,-3.2859,-3.2843,-3.287,-3.2921,-3.2936,-3.2955,-3.2957,-3.2998,-3.3038,-3.2986,-3.2992,-3.2952,-3.2995,-3.3121,-3.2934,-3.2933,-3.2969,-3.3242,-3.3283,-3.3307,-3.3085,-3.3089,-3.3092,-3.3242,0,-3.3024,-3.3108,-3.3059,-3.315,-3.3183,-3.3105,-3.3149,-3.3145,-3.3122,-3.3147,-3.3122,-3.315,-3.3081,-3.3084,-3.3123,-3.3098,-3.3175,-3.3086,-3.3123,-3.3125,-3.3126,-3.3333,-3.3376,-3.3518,-3.3261,-3.3264,-3.3267,0,-3.321,-3.322,-3.3315,-3.3292,-3.3304,-3.3345,-3.3355,-3.3379,-3.3373,-3.3353,-3.336,-3.331,-3.3359,-3.3279,-3.3345,-3.3286,-3.3298,-3.3288,-3.3293,-3.3293,-3.3203,-3.3338,-3.3563,-3.3584,-3.3296,-3.3294,-3.3291,0,-3.3371,-3.3408,-3.3469,-3.3471,-3.3447,-3.3477,-3.3469,-3.3457,-3.347,-3.3479,-3.3486,-3.3502,-3.351,-3.3523,-3.3479,-3.3425,-3.3552,-3.3467,-3.3537,-3.3538,-3.3566,-3.3564,-3.3795,-3.3577,-3.3576,-3.3576,-3.3575,0,-3.3544,-3.3605,-3.3541,-3.3579,-3.3645,-3.3589,-3.3656,-3.3639,-3.363,-3.3663,-3.3598,-3.3631,-3.3571,-3.3598,-3.3565,-3.3625,-3.3629,-3.3615,-3.3605,-3.362,-3.3622,-3.3626,-3.3614,-3.3581,-3.358,-3.3579,-3.3578,0,-3.3734,-3.3694,-3.3755,-3.3728,-3.3722,-3.3772,-3.3748,-3.3782,-3.3756,-3.3799,-3.3806,-3.3764,-3.3793,-3.3751,-3.3775,-3.3752,-3.3834,-3.381,-3.3837,-3.3829,-3.39,-3.3894,-3.4141,-3.417,-3.3935,-3.3937,-3.3939,0,-3.3846,-3.3891,-3.3868,-3.3886,-3.3881,-3.391,-3.3922,-3.3869,-3.3884,-3.3881,-3.3915,-3.3939,-3.3954,-3.4003,-3.3976,-3.3994,-3.3969,-3.4054,-3.3971,-3.3985,-3.3968,-3.3966,-3.397,-3.4071,-3.4073,-3.4076,-3.4078,0,-3.4049,-3.4027,-3.4047,-3.406,-3.4077,-3.4085,-3.4088,-3.4107,-3.4051,-3.4072,-3.41,-3.4112,-3.4137,-3.416,-3.4172,-3.4163,-3.4112,-3.4104,-3.4121,-3.4136,-3.4149,-3.4142,-3.3882,-3.4098,-3.4096,-3.4095,-3.4094,-3.4093,-3.4202,-3.4238,-3.4228,-3.4253,-3.425,-3.4255,-3.4285,-3.4262,-3.4285,-3.43,-3.4268,-3.4304,-3.4297,-3.4307,-3.4304,-3.4332,-3.4295,-3.432,-3.4326,-3.4332,-3.4343,-3.4146,-3.4334,-3.4334,-3.4333,-3.4333,-3.4332,0,-3.4401,-3.439,-3.4414,-3.442,-3.444,-3.439,-3.4391,-3.4411,-3.4443,-3.4441,-3.4458,-3.449,-3.4513,-3.4488,-3.4506,-3.4534,-3.451,-3.454,-3.4537,-3.4535,-3.4376,-3.4359,-3.4558,-3.4558,-3.4558,-3.4558,-3.4558,-3.4558,-3.4506,-3.4564,-3.4542,-3.4598,-3.4587,-3.4622,-3.4627,-3.4631,-3.4629,-3.4668,-3.4687,-3.467,-3.4659,-3.4676,-3.4695,-3.4687,-3.4696,-3.4734,-3.4718,-3.4569,-3.4547,-3.4526,-3.4509,-3.4737,-3.4737,-3.4875,-3.4876,-3.4877]},{"header":{"parameterUnit":"m.s-1","parameterCategory":1,"la1":30.2991,"la2":30.254,"lo1":-89.0895,"lo2":-89.0444,"dy":0.0017,"dx":0.0017,"nx":28,"ny":28,"refTime":"2023-10-27T09:00:00:Z","depth":0,"parameterNumber":3,"parameterNumberName":"V-component_of_WINDS"},"data":[0,0,0,0,0,0,0,0,0,0,0,0,0,0,0,0,0,0,0,0,0,0,0,0,0,0,0,0,0,0,0,0,0,0,0,0,0,0,0,0,0,0,0,0,0,0,0,0,0,0,0,0,0,0,0,0,0,0,-0.2959,-0.2959,0,-0.2924,-0.2923,-0.2923,-0.2917,-0.2917,-0.2917,-0.2917,-0.2881,-0.288,-0.2879,0,0,0,0,0,0,0,0,0,0,0,0,0,-0.302,-0.3018,-0.2959,-0.2959,-0.2959,-0.2924,-0.2923,-0.2923,-0.2917,-0.2917,-0.2917,-0.2918,-0.2882,-0.288,-0.2879,0,0,0,0,0,0,0,0,0,0,0,0,0,-0.299,-0.3018,-0.2959,-0.2951,-0.295,-0.2924,-0.2923,-0.2923,-0.2916,-0.2917,-0.2917,-0.2918,-0.2882,-0.288,-0.2878,-0.2858,0,0,-0.2873,-0.2872,0,0,0,0,0,0,0,0,-0.2991,-0.2987,-0.2953,-0.2952,-0.295,-0.2925,-0.2931,-0.2901,-0.2916,-0.2929,-0.2917,-0.2918,-0.2895,-0.2892,-0.2885,-0.2856,-0.2855,-0.2873,-0.2871,-0.2871,-0.287,0,0,0,0,0,0,0,-0.2993,-0.2989,-0.2945,-0.2952,-0.2951,-0.2948,-0.2945,-0.2925,-0.291,-0.2928,-0.2928,-0.2923,-0.2895,-0.2887,-0.2884,-0.2854,-0.2873,-0.2871,-0.287,-0.2869,-0.2804,-0.2803,0,0,0,0,0,0,-0.2997,-0.2991,-0.2946,-0.2944,-0.2972,-0.2947,-0.2943,-0.2933,-0.291,-0.2908,-0.2923,-0.2923,-0.289,-0.2886,-0.2883,-0.2855,-0.2871,-0.2869,-0.2868,-0.2804,-0.2804,-0.2803,0,0,0,0,0,0,-0.2998,-0.2993,-0.2948,-0.2967,-0.2961,-0.2945,-0.2934,-0.2932,-0.2924,-0.2907,-0.2904,-0.2918,-0.289,-0.2885,-0.2863,-0.2854,-0.2868,-0.2866,-0.2805,-0.2804,-0.2803,-0.2801,0,0,0,0,0,0,-0.3,-0.2994,-0.2987,-0.2967,-0.296,-0.293,-0.2934,-0.2931,-0.292,-0.292,-0.2901,-0.2898,-0.289,-0.2866,-0.2862,-0.2851,-0.2865,-0.2806,-0.2805,-0.2804,-0.2802,-0.28,-0.2799,0,0,0,0,0,-0.3002,-0.2988,-0.2986,-0.2981,-0.2951,-0.293,-0.2925,-0.2916,-0.292,-0.2912,-0.29,-0.2899,-0.2856,-0.2864,-0.2859,-0.2848,-0.2806,-0.2805,-0.2804,-0.2803,-0.2801,-0.2799,0,0,0,0,0,0,-0.3008,-0.2986,-0.2983,-0.2963,-0.2948,-0.2928,-0.2918,-0.2915,-0.2899,-0.29,-0.2889,-0.2884,-0.2862,-0.2853,-0.2863,-0.2825,-0.2831,-0.2829,-0.2832,-0.283,-0.2828,-0.2831,-0.2863,0,0,0,0,0,-0.3007,-0.2991,-0.2973,-0.2956,-0.2949,-0.2935,-0.2925,-0.2919,-0.2903,-0.2897,-0.2884,-0.2869,-0.2851,-0.284,-0.2824,-0.2801,-0.2795,-0.279,-0.2789,-0.2787,-0.2785,-0.2769,-0.2766,-0.2798,-0.2798,-0.2798,0,0,-0.3004,-0.299,-0.2981,-0.2957,-0.2945,-0.2928,-0.293,-0.2913,-0.29,-0.2895,-0.2872,-0.2862,-0.2844,-0.2821,-0.281,-0.2812,-0.2774,-0.2786,-0.2785,-0.2783,-0.2767,-0.2764,-0.2761,-0.2797,-0.2798,-0.2798,0,0,-0.2991,-0.2979,-0.2963,-0.295,-0.2931,-0.2921,-0.2917,-0.2898,-0.289,-0.2868,-0.2862,-0.2847,-0.2818,-0.2804,-0.2793,-0.2771,-0.2768,-0.2766,-0.2757,-0.2741,-0.2739,-0.2736,-0.2726,-0.2723,-0.2764,-0.2764,-0.2764,0,-0.299,-0.2965,-0.2955,-0.2937,-0.2925,-0.2919,-0.2901,-0.2889,-0.2866,-0.2857,-0.286,-0.2821,-0.2809,-0.2781,-0.2775,-0.2767,-0.2761,-0.2768,-0.274,-0.2738,-0.2735,-0.2725,-0.2721,-0.2764,-0.2764,-0.2764,-0.2764,0,-0.2964,-0.2946,-0.2935,-0.2911,-0.2898,-0.2881,-0.2867,-0.2855,-0.2849,-0.2838,-0.2814,-0.2798,-0.2777,-0.277,-0.2765,-0.274,-0.2741,-0.2742,-0.2748,-0.2732,-0.2722,-0.2718,-0.2763,-0.2763,-0.2763,-0.2763,0,0,-0.2955,-0.2923,-0.2919,-0.2907,-0.2884,-0.287,-0.2851,-0.2829,-0.2817,-0.2801,-0.2783,-0.2757,-0.2757,-0.2745,-0.2738,-0.2724,-0.2704,-0.2727,-0.2726,-0.2721,-0.2672,-0.267,-0.2666,-0.2702,-0.2701,-0.27,-0.2672,0,-0.2937,-0.2903,-0.2892,-0.2863,-0.2845,-0.2837,-0.2819,-0.2803,-0.2792,-0.2774,-0.2762,-0.2742,-0.2745,-0.2737,-0.2723,-0.2709,-0.2694,-0.2711,-0.2683,-0.2683,-0.2687,-0.2661,-0.266,-0.2634,-0.2669,-0.2668,-0.2668,0,-0.2913,-0.2894,-0.2863,-0.2839,-0.2831,-0.2816,-0.2793,-0.2777,-0.2757,-0.2749,-0.2734,-0.2727,-0.2705,-0.2712,-0.2679,-0.2692,-0.2679,-0.2671,-0.2669,-0.2665,-0.2673,-0.2654,-0.2626,-0.2622,-0.2662,-0.2662,-0.2663,0,-0.2907,-0.2874,-0.285,-0.284,-0.2812,-0.2801,-0.2789,-0.2769,-0.2756,-0.2736,-0.2726,-0.2704,-0.2692,-0.2674,-0.2661,-0.2667,-0.2628,-0.2635,-0.262,-0.262,-0.2612,-0.2612,-0.2579,-0.2607,-0.2607,-0.2607,-0.2607,0,-0.2888,-0.2869,-0.2847,-0.2832,-0.2809,-0.2795,-0.2773,-0.276,-0.2742,-0.2723,-0.2715,-0.2698,-0.2682,-0.2661,-0.2651,-0.2624,-0.2619,-0.2611,-0.2608,-0.2611,-0.2612,-0.2602,-0.2603,-0.2606,-0.2606,-0.2606,-0.2606,0,-0.2878,-0.2863,-0.2836,-0.281,-0.2803,-0.2787,-0.2765,-0.2749,-0.2736,-0.2713,-0.2706,-0.2686,-0.2662,-0.2647,-0.2616,-0.2609,-0.2578,-0.2577,-0.2585,-0.2583,-0.2568,-0.2569,-0.2527,-0.2519,-0.2553,-0.2553,-0.2553,0,-0.2867,-0.2852,-0.2823,-0.281,-0.2797,-0.2776,-0.2761,-0.2746,-0.2731,-0.2704,-0.2691,-0.2666,-0.2645,-0.2606,-0.2588,-0.2563,-0.256,-0.2547,-0.2557,-0.2558,-0.2557,-0.2557,-0.2554,-0.2545,-0.2545,-0.2545,-0.2544,0,-0.2848,-0.284,-0.2819,-0.2794,-0.2776,-0.2757,-0.2737,-0.2726,-0.2707,-0.269,-0.2664,-0.2647,-0.2614,-0.2588,-0.2562,-0.2548,-0.2542,-0.2541,-0.2536,-0.2538,-0.2542,-0.2537,-0.2579,-0.2542,-0.2543,-0.2543,-0.2543,-0.2543,-0.2835,-0.282,-0.2796,-0.2772,-0.2755,-0.2736,-0.2719,-0.2702,-0.2681,-0.2652,-0.2644,-0.2616,-0.2593,-0.2556,-0.2541,-0.2518,-0.252,-0.2513,-0.2511,-0.2509,-0.2507,-0.2547,-0.2513,-0.2514,-0.2514,-0.2514,-0.2514,0,-0.2814,-0.2798,-0.2775,-0.2746,-0.2727,-0.2722,-0.2699,-0.2682,-0.2657,-0.2636,-0.2614,-0.2582,-0.2556,-0.2535,-0.2507,-0.2493,-0.2489,-0.2486,-0.2486,-0.2482,-0.2509,-0.2515,-0.2489,-0.2489,-0.2489,-0.2489,-0.2489,-0.2489,-0.28,-0.2773,-0.2761,-0.2724,-0.2708,-0.2679,-0.2666,-0.2647,-0.2629,-0.2594,-0.2571,-0.2557,-0.2535,-0.2505,-0.2479,-0.2474,-0.2463,-0.246,-0.2453,-0.2478,-0.2481,-0.2483,-0.2489,-0.2458,-0.2458,-0.2428,-0.2428,-0.2428]}]]